"Period start","avg(HW err(1)/warn(2) (#))","avg(Visibility (m))","avg(Weather code (#))","avg(Precip intensity (mm/h))","min(HW err(1)/warn(2) (#))","max(HW err(1)/warn(2) (#))","std(HW err(1)/warn(2) (#))","med(HW err(1)/warn(2) (#))","min(Visibility (m))","max(Visibility (m))","std(Visibility (m))","med(Visibility (m))","min(Weather code (#))","max(Weather code (#))","std(Weather code (#))","med(Weather code (#))","min(Precip intensity (mm/h))","max(Precip intensity (mm/h))","std(Precip intensity (mm/h))","med(Precip intensity (mm/h))"
2016-07-01 00:00:00,2,40306,0,0.00,2,2,0,2,26611,50000,7339,41090,0,0,0,0,0.00,0.00,0.00,0.00
2016-07-01 00:10:00,2,40826,0,0.00,2,2,0,2,31023,50000,6452,40476,0,0,0,0,0.00,0.00,0.00,0.00
2016-07-01 00:20:00,2,42911,0,0.00,2,2,0,2,30734,50000,5435,43885,0,0,0,0,0.00,0.00,0.00,0.00
2016-07-01 00:30:00,2,41747,0,0.00,2,2,0,2,34701,50000,5411,42166,0,0,0,0,0.00,0.00,0.00,0.00
2016-07-01 00:40:00,2,37562,0,0.00,2,2,0,2,22072,50000,10258,42978,0,0,0,0,0.00,0.00,0.00,0.00
2016-07-01 00:50:00,2,40879,0,0.00,2,2,0,2,29796,50000,6687,42580,0,0,0,0,0.00,0.00,0.00,0.00
2016-07-01 01:00:00,2,46541,0,0.00,2,2,0,2,30326,50000,5885,49295,0,0,0,0,0.00,0.00,0.00,0.00
2016-07-01 01:10:00,2,37850,0,0.00,2,2,0,2,20064,47184,7972,39040,0,0,0,0,0.00,0.00,0.00,0.00
2016-07-01 01:20:00,2,42009,0,0.00,2,2,0,2,28350,50000,6765,43274,0,0,0,0,0.00,0.00,0.00,0.00
2016-07-01 01:30:00,2,43128,0,0.00,2,2,0,2,28761,50000,7297,45105,0,0,0,0,0.00,0.00,0.00,0.00
2016-07-01 01:40:00,2,37862,0,0.00,2,2,0,2,27899,50000,7504,37914,0,0,0,0,0.00,0.00,0.00,0.00
2016-07-01 01:50:00,2,45335,0,0.00,2,2,0,2,34910,50000,5066,47594,0,0,0,0,0.00,0.00,0.00,0.00
2016-07-01 02:00:00,2,41669,0,0.00,2,2,0,2,35159,50000,5821,40733,0,0,0,0,0.00,0.00,0.00,0.00
2016-07-01 02:10:00,2,36797,0,0.00,2,2,0,2,22395,50000,8582,35104,0,0,0,0,0.00,0.00,0.00,0.00
2016-07-01 02:20:00,2,42658,0,0.00,2,2,0,2,30066,50000,6887,44622,0,0,0,0,0.00,0.00,0.00,0.00
2016-07-01 02:30:00,2,42080,0,0.00,2,2,0,2,36154,50000,4531,42942,0,0,0,0,0.00,0.00,0.00,0.00
2016-07-01 02:40:00,2,44766,0,0.00,2,2,0,2,39890,50000,3610,44076,0,0,0,0,0.00,0.00,0.00,0.00
2016-07-01 02:50:00,2,41844,0,0.00,2,2,0,2,33515,50000,5758,42695,0,0,0,0,0.00,0.00,0.00,0.00
2016-07-01 03:00:00,2,41097,0,0.00,2,2,0,2,29871,50000,6539,43107,0,0,0,0,0.00,0.00,0.00,0.00
2016-07-01 03:10:00,2,41234,0,0.00,2,2,0,2,29401,50000,6605,43312,0,0,0,0,0.00,0.00,0.00,0.00
2016-07-01 03:20:00,2,40110,0,0.00,2,2,0,2,29796,50000,7429,38448,0,0,0,0,0.00,0.00,0.00,0.00
2016-07-01 03:30:00,2,42769,0,0.00,2,2,0,2,35259,50000,5319,42784,0,0,0,0,0.00,0.00,0.00,0.00
2016-07-01 03:40:00,2,42651,0,0.00,2,2,0,2,32197,50000,6009,42682,0,0,0,0,0.00,0.00,0.00,0.00
2016-07-01 03:50:00,2,39386,0,0.00,2,2,0,2,27805,50000,7181,42508,0,0,0,0,0.00,0.00,0.00,0.00
2016-07-01 04:00:00,2,45497,0,0.00,2,2,0,2,30419,50000,6041,47824,0,0,0,0,0.00,0.00,0.00,0.00
2016-07-01 04:10:00,2,45863,0,0.00,2,2,0,2,36756,50000,4230,47376,0,0,0,0,0.00,0.00,0.00,0.00
2016-07-01 04:20:00,2,48895,0,0.00,2,2,0,2,46131,50000,1542,50000,0,0,0,0,0.00,0.00,0.00,0.00
2016-07-01 04:30:00,2,47576,0,0.00,2,2,0,2,41086,50000,3070,49436,0,0,0,0,0.00,0.00,0.00,0.00
2016-07-01 04:40:00,2,47988,0,0.00,2,2,0,2,37423,50000,3858,50000,0,0,0,0,0.00,0.00,0.00,0.00
2016-07-01 04:50:00,2,45986,0,0.00,2,2,0,2,33604,50000,5657,50000,0,0,0,0,0.00,0.00,0.00,0.00
2016-07-01 05:00:00,2,46336,0,0.00,2,2,0,2,38531,50000,4428,48568,0,0,0,0,0.00,0.00,0.00,0.00
2016-07-01 05:10:00,2,48051,0,0.00,2,2,0,2,43631,50000,2141,48517,0,0,0,0,0.00,0.00,0.00,0.00
2016-07-01 05:20:00,2,42359,0,0.00,2,2,0,2,36183,49762,4286,42474,0,0,0,0,0.00,0.00,0.00,0.00
2016-07-01 05:30:00,2,47117,0,0.00,2,2,0,2,36827,50000,3892,48721,0,0,0,0,0.00,0.00,0.00,0.00
2016-07-01 05:40:00,2,47284,0,0.00,2,2,0,2,38315,50000,3726,49076,0,0,0,0,0.00,0.00,0.00,0.00
2016-07-01 05:50:00,2,44152,0,0.00,0,2,1,2,37338,50000,4707,44646,0,0,0,0,0.00,0.00,0.00,0.00
2016-07-01 06:00:00,2,39460,0,0.00,2,2,0,2,33120,44686,3642,40473,0,0,0,0,0.00,0.00,0.00,0.00
2016-07-01 06:10:00,2,43626,0,0.00,2,2,0,2,38546,50000,3788,42897,0,0,0,0,0.00,0.00,0.00,0.00
2016-07-01 06:20:00,2,41775,0,0.00,2,2,0,2,33274,47719,3855,41951,0,0,0,0,0.00,0.00,0.00,0.00
2016-07-01 06:30:00,2,44594,0,0.00,2,2,0,2,36106,50000,4563,44990,0,0,0,0,0.00,0.00,0.00,0.00
2016-07-01 06:40:00,2,44612,0,0.00,2,2,0,2,39143,50000,2779,44665,0,0,0,0,0.00,0.00,0.00,0.00
2016-07-01 06:50:00,2,47581,0,0.00,2,2,0,2,41821,50000,2885,48678,0,0,0,0,0.00,0.00,0.00,0.00
2016-07-01 07:00:00,2,48534,0,0.00,2,2,0,2,46171,50000,1523,49028,0,0,0,0,0.00,0.00,0.00,0.00
2016-07-01 07:10:00,2,42188,0,0.00,2,2,0,2,35832,50000,5158,40510,0,0,0,0,0.00,0.00,0.00,0.00
2016-07-01 07:20:00,2,46702,0,0.00,2,2,0,2,42766,50000,2330,46074,0,0,0,0,0.00,0.00,0.00,0.00
2016-07-01 07:30:00,2,45345,0,0.00,2,2,0,2,36761,50000,4345,46502,0,0,0,0,0.00,0.00,0.00,0.00
2016-07-01 07:40:00,2,44684,0,0.00,2,2,0,2,36136,50000,4228,45828,0,0,0,0,0.00,0.00,0.00,0.00
2016-07-01 07:50:00,2,45700,0,0.00,2,2,0,2,41564,50000,3169,45395,0,0,0,0,0.00,0.00,0.00,0.00
2016-07-01 08:00:00,2,48297,0,0.00,2,2,0,2,37567,50000,3705,50000,0,0,0,0,0.00,0.00,0.00,0.00
2016-07-01 08:10:00,2,49857,0,0.00,2,2,0,2,49067,50000,302,50000,0,0,0,0,0.00,0.00,0.00,0.00
2016-07-01 08:20:00,2,50000,0,0.00,2,2,0,2,50000,50000,0,50000,0,0,0,0,0.00,0.00,0.00,0.00
2016-07-01 08:30:00,2,50000,0,0.00,2,2,0,2,50000,50000,0,50000,0,0,0,0,0.00,0.00,0.00,0.00
2016-07-01 08:40:00,2,47108,0,0.00,2,2,0,2,38220,50000,4066,48846,0,0,0,0,0.00,0.00,0.00,0.00
2016-07-01 08:50:00,2,49751,0,0.00,2,2,0,2,47510,50000,747,50000,0,0,0,0,0.00,0.00,0.00,0.00
2016-07-01 09:00:00,2,49431,0,0.00,2,2,0,2,45640,50000,1324,50000,0,0,0,0,0.00,0.00,0.00,0.00
2016-07-01 09:10:00,2,49249,0,0.00,2,2,0,2,43486,50000,1944,50000,0,0,0,0,0.00,0.00,0.00,0.00
2016-07-01 09:20:00,2,49913,0,0.00,2,2,0,2,49127,50000,262,50000,0,0,0,0,0.00,0.00,0.00,0.00
2016-07-01 09:30:00,2,48566,0,0.00,2,2,0,2,43986,50000,2380,50000,0,0,0,0,0.00,0.00,0.00,0.00
2016-07-01 09:40:00,2,49094,0,0.00,2,2,0,2,45046,50000,1577,50000,0,0,0,0,0.00,0.00,0.00,0.00
2016-07-01 09:50:00,2,44873,0,0.00,2,2,0,2,24936,50000,9512,50000,0,0,0,0,0.00,0.00,0.00,0.00
2016-07-01 10:00:00,2,48054,0,0.00,2,2,0,2,38985,50000,3400,50000,0,0,0,0,0.00,0.00,0.00,0.00
2016-07-01 10:10:00,2,49944,0,0.00,2,2,0,2,49439,50000,168,50000,0,0,0,0,0.00,0.00,0.00,0.00
2016-07-01 10:20:00,2,50000,0,0.00,2,2,0,2,50000,50000,0,50000,0,0,0,0,0.00,0.00,0.00,0.00
2016-07-01 10:30:00,2,50000,0,0.00,2,2,0,2,50000,50000,0,50000,0,0,0,0,0.00,0.00,0.00,0.00
2016-07-01 10:40:00,2,48186,0,0.00,2,2,0,2,37555,50000,3881,50000,0,0,0,0,0.00,0.00,0.00,0.00
2016-07-01 10:50:00,2,49666,0,0.00,2,2,0,2,46660,50000,1002,50000,0,0,0,0,0.00,0.00,0.00,0.00
2016-07-01 11:00:00,2,49798,0,0.00,2,2,0,2,47982,50000,605,50000,0,0,0,0,0.00,0.00,0.00,0.00
2016-07-01 11:10:00,2,50000,0,0.00,2,2,0,2,50000,50000,0,50000,0,0,0,0,0.00,0.00,0.00,0.00
2016-07-01 11:20:00,2,50000,0,0.00,2,2,0,2,50000,50000,0,50000,0,0,0,0,0.00,0.00,0.00,0.00
2016-07-01 11:30:00,2,50000,0,0.00,2,2,0,2,50000,50000,0,50000,0,0,0,0,0.00,0.00,0.00,0.00
2016-07-01 11:40:00,2,50000,0,0.00,2,2,0,2,50000,50000,0,50000,0,0,0,0,0.00,0.00,0.00,0.00
2016-07-01 11:50:00,2,49916,0,0.00,2,2,0,2,49159,50000,252,50000,0,0,0,0,0.00,0.00,0.00,0.00
2016-07-01 12:00:00,2,39443,26,0.25,2,2,0,2,28847,50000,8035,40403,0,51,22,40,0.00,1.20,0.36,0.08
2016-07-01 12:10:00,2,29725,56,0.59,2,2,0,2,13460,50000,11620,27832,51,61,5,56,0.00,2.30,0.75,0.20
2016-07-01 12:20:00,2,27410,52,0.63,2,2,0,2,15019,49559,11496,24777,51,61,3,51,0.10,1.70,0.47,0.47
2016-07-01 12:30:00,2,47468,54,0.19,2,2,0,2,39312,50000,3250,48762,51,61,5,51,0.00,0.90,0.27,0.05
2016-07-01 12:40:00,2,31630,55,0.58,2,2,0,2,21129,43991,6855,31500,51,61,5,51,0.15,1.30,0.40,0.42
2016-07-01 12:50:00,2,41763,57,0.14,2,2,0,2,26417,50000,8184,43441,51,61,5,61,0.00,0.50,0.14,0.10
2016-07-01 13:00:00,2,50000,5,0.00,2,2,0,2,50000,50000,0,50000,0,51,15,0,0.00,0.00,0.00,0.00
2016-07-01 13:10:00,2,50000,0,0.00,2,2,0,2,50000,50000,0,50000,0,0,0,0,0.00,0.00,0.00,0.00
2016-07-01 13:20:00,2,50000,0,0.00,2,2,0,2,50000,50000,0,50000,0,0,0,0,0.00,0.00,0.00,0.00
2016-07-01 13:30:00,2,42821,0,0.00,2,2,0,2,28331,50000,8146,47838,0,0,0,0,0.00,0.00,0.00,0.00
2016-07-01 13:40:00,2,36315,4,0.00,2,2,0,2,19098,49330,10555,37464,0,40,12,0,0.00,0.00,0.00,0.00
2016-07-01 13:50:00,2,46478,14,0.01,2,2,0,2,31037,50000,6558,50000,0,51,22,0,0.00,0.15,0.05,0.00
2016-07-01 14:00:00,2,50000,0,0.00,1,2,0,2,50000,50000,0,50000,0,0,0,0,0.00,0.00,0.00,0.00
2016-07-01 14:10:00,2,49932,0,0.00,2,2,0,2,49315,50000,206,50000,0,0,0,0,0.00,0.00,0.00,0.00
2016-07-01 14:20:00,2,50000,0,0.00,2,2,0,2,50000,50000,0,50000,0,0,0,0,0.00,0.00,0.00,0.00
2016-07-01 14:30:00,2,50000,0,0.00,2,2,0,2,50000,50000,0,50000,0,0,0,0,0.00,0.00,0.00,0.00
2016-07-01 14:40:00,2,50000,0,0.00,2,2,0,2,50000,50000,0,50000,0,0,0,0,0.00,0.00,0.00,0.00
2016-07-01 14:50:00,2,50000,0,0.00,2,2,0,2,50000,50000,0,50000,0,0,0,0,0.00,0.00,0.00,0.00
2016-07-01 15:00:00,2,50000,0,0.00,2,2,0,2,50000,50000,0,50000,0,0,0,0,0.00,0.00,0.00,0.00
2016-07-01 15:10:00,2,46972,0,0.00,2,2,0,2,39723,50000,3686,48982,0,0,0,0,0.00,0.00,0.00,0.00
2016-07-01 15:20:00,2,47453,0,0.00,2,2,0,2,38219,50000,3891,50000,0,0,0,0,0.00,0.00,0.00,0.00
2016-07-01 15:30:00,2,47305,0,0.00,2,2,0,2,42145,50000,2288,48012,0,0,0,0,0.00,0.00,0.00,0.00
2016-07-01 15:40:00,2,50000,0,0.00,2,2,0,2,50000,50000,0,50000,0,0,0,0,0.00,0.00,0.00,0.00
2016-07-01 15:50:00,2,49882,0,0.00,2,2,0,2,48820,50000,354,50000,0,0,0,0,0.00,0.00,0.00,0.00
2016-07-01 16:00:00,2,50000,0,0.00,2,2,0,2,50000,50000,0,50000,0,0,0,0,0.00,0.00,0.00,0.00
2016-07-01 16:10:00,2,49935,0,0.00,2,2,0,2,49353,50000,194,50000,0,0,0,0,0.00,0.00,0.00,0.00
2016-07-01 16:20:00,2,50000,0,0.00,2,2,0,2,50000,50000,0,50000,0,0,0,0,0.00,0.00,0.00,0.00
2016-07-01 16:30:00,2,50000,0,0.00,2,2,0,2,50000,50000,0,50000,0,0,0,0,0.00,0.00,0.00,0.00
2016-07-01 16:40:00,2,50000,0,0.00,2,2,0,2,50000,50000,0,50000,0,0,0,0,0.00,0.00,0.00,0.00
2016-07-01 16:50:00,2,50000,0,0.00,2,2,0,2,50000,50000,0,50000,0,0,0,0,0.00,0.00,0.00,0.00
2016-07-01 17:00:00,2,50000,0,0.00,2,2,0,2,50000,50000,0,50000,0,0,0,0,0.00,0.00,0.00,0.00
2016-07-01 17:10:00,2,50000,0,0.00,2,2,0,2,50000,50000,0,50000,0,0,0,0,0.00,0.00,0.00,0.00
2016-07-01 17:20:00,2,50000,0,0.00,2,2,0,2,50000,50000,0,50000,0,0,0,0,0.00,0.00,0.00,0.00
2016-07-01 17:30:00,2,45867,0,0.00,2,2,0,2,34494,50000,5069,47649,0,0,0,0,0.00,0.00,0.00,0.00
2016-07-01 17:40:00,2,50000,0,0.00,2,2,0,2,50000,50000,0,50000,0,0,0,0,0.00,0.00,0.00,0.00
2016-07-01 17:50:00,2,50000,0,0.00,2,2,0,2,50000,50000,0,50000,0,0,0,0,0.00,0.00,0.00,0.00
2016-07-01 18:00:00,2,50000,0,0.00,2,2,0,2,50000,50000,0,50000,0,0,0,0,0.00,0.00,0.00,0.00
2016-07-01 18:10:00,2,50000,0,0.00,2,2,0,2,50000,50000,0,50000,0,0,0,0,0.00,0.00,0.00,0.00
2016-07-01 18:20:00,2,49986,0,0.00,2,2,0,2,49863,50000,41,50000,0,0,0,0,0.00,0.00,0.00,0.00
2016-07-01 18:30:00,2,50000,0,0.00,2,2,0,2,50000,50000,0,50000,0,0,0,0,0.00,0.00,0.00,0.00
2016-07-01 18:40:00,2,49780,0,0.00,2,2,0,2,47803,50000,659,50000,0,0,0,0,0.00,0.00,0.00,0.00
2016-07-01 18:50:00,2,50000,0,0.00,2,2,0,2,50000,50000,0,50000,0,0,0,0,0.00,0.00,0.00,0.00
2016-07-01 19:00:00,2,50000,0,0.00,2,2,0,2,50000,50000,0,50000,0,0,0,0,0.00,0.00,0.00,0.00
2016-07-01 19:10:00,2,50000,0,0.00,2,2,0,2,50000,50000,0,50000,0,0,0,0,0.00,0.00,0.00,0.00
2016-07-01 19:20:00,2,49714,0,0.00,2,2,0,2,47141,50000,858,50000,0,0,0,0,0.00,0.00,0.00,0.00
2016-07-01 19:30:00,2,49968,0,0.00,2,2,0,2,49675,50000,98,50000,0,0,0,0,0.00,0.00,0.00,0.00
2016-07-01 19:40:00,2,49722,0,0.00,2,2,0,2,47225,50000,832,50000,0,0,0,0,0.00,0.00,0.00,0.00
2016-07-01 19:50:00,2,50000,0,0.00,2,2,0,2,50000,50000,0,50000,0,0,0,0,0.00,0.00,0.00,0.00
2016-07-01 20:00:00,2,50000,0,0.00,2,2,0,2,50000,50000,0,50000,0,0,0,0,0.00,0.00,0.00,0.00
2016-07-01 20:10:00,2,49871,0,0.00,2,2,0,2,48706,50000,388,50000,0,0,0,0,0.00,0.00,0.00,0.00
2016-07-01 20:20:00,2,50000,0,0.00,2,2,0,2,50000,50000,0,50000,0,0,0,0,0.00,0.00,0.00,0.00
2016-07-01 20:30:00,2,49575,0,0.00,2,2,0,2,48520,50000,559,50000,0,0,0,0,0.00,0.00,0.00,0.00
2016-07-01 20:40:00,2,50000,0,0.00,2,2,0,2,50000,50000,0,50000,0,0,0,0,0.00,0.00,0.00,0.00
2016-07-01 20:50:00,2,49955,0,0.00,2,2,0,2,49552,50000,134,50000,0,0,0,0,0.00,0.00,0.00,0.00
2016-07-01 21:00:00,2,50000,0,0.00,2,2,0,2,50000,50000,0,50000,0,0,0,0,0.00,0.00,0.00,0.00
2016-07-01 21:10:00,2,48832,0,0.00,2,2,0,2,44162,50000,1938,50000,0,0,0,0,0.00,0.00,0.00,0.00
2016-07-01 21:20:00,2,49863,0,0.00,2,2,0,2,48633,50000,410,50000,0,0,0,0,0.00,0.00,0.00,0.00
2016-07-01 21:30:00,2,50000,0,0.00,2,2,0,2,50000,50000,0,50000,0,0,0,0,0.00,0.00,0.00,0.00
2016-07-01 21:40:00,2,49723,0,0.00,2,2,0,2,49113,50000,357,50000,0,0,0,0,0.00,0.00,0.00,0.00
2016-07-01 21:50:00,2,50000,0,0.00,2,2,0,2,50000,50000,0,50000,0,0,0,0,0.00,0.00,0.00,0.00
2016-07-01 22:00:00,2,49090,0,0.00,2,2,0,2,44578,50000,1670,50000,0,0,0,0,0.00,0.00,0.00,0.00
2016-07-01 22:10:00,2,48914,0,0.00,2,2,0,2,45248,50000,1715,49950,0,0,0,0,0.00,0.00,0.00,0.00
2016-07-01 22:20:00,2,49931,0,0.00,2,2,0,2,49309,50000,207,50000,0,0,0,0,0.00,0.00,0.00,0.00
2016-07-01 22:30:00,2,49336,0,0.00,2,2,0,2,44263,50000,1712,50000,0,0,0,0,0.00,0.00,0.00,0.00
2016-07-01 22:40:00,2,47659,0,0.00,2,2,0,2,43833,50000,2525,49023,0,0,0,0,0.00,0.00,0.00,0.00
2016-07-01 22:50:00,2,49903,0,0.00,2,2,0,2,49032,50000,290,50000,0,0,0,0,0.00,0.00,0.00,0.00
2016-07-01 23:00:00,2,49462,0,0.00,2,2,0,2,45438,50000,1351,50000,0,0,0,0,0.00,0.00,0.00,0.00
2016-07-01 23:10:00,2,47751,0,0.00,2,2,0,2,40927,50000,3194,49555,0,0,0,0,0.00,0.00,0.00,0.00
2016-07-01 23:20:00,2,49978,0,0.00,2,2,0,2,49783,50000,65,50000,0,0,0,0,0.00,0.00,0.00,0.00
2016-07-01 23:30:00,2,49978,0,0.00,2,2,0,2,49866,50000,46,50000,0,0,0,0,0.00,0.00,0.00,0.00
2016-07-01 23:40:00,2,49522,0,0.00,2,2,0,2,45215,50000,1436,50000,0,0,0,0,0.00,0.00,0.00,0.00
2016-07-01 23:50:00,2,50000,0,0.00,2,2,0,2,50000,50000,0,50000,0,0,0,0,0.00,0.00,0.00,0.00
